ATLAS 5 CENTAUR DEB, 46464

Orbit data source: Space-Track

ATLAS 5 CENTAUR DEB, 46464 is space debris in HEO originally from a launch on Wed, 17 Sep 2014 UTC launched from the Air Force Eastern Test Range (AFETR). Debris objects in space refer to the collection of defunct objects orbiting the Earth. Examples of debris include non-operational satellites, rocket bodies, and fragments generated from explosions, collisions, or faulty payload assembly.

Loading next visibility...
ATLAS 5 CENTAUR DEB details
Identifier
46464, 2014-055CL
Orbit
HEO
Last TLE update2 days ago
Origin
Flag of USULA (US)
ManufacturerUnknown
MissionSpacecraft
Bus & MotorUnknown
MassUnknown
Launch date (UTC)
2014-09-17 (10 years ago)
Launch vehicleUnknown
Launch site
Air Force Eastern Test Range (AFETR)
Object type
Payload
Rocket body
Debris
Shape & HBRUnknown
Radar Cross SectionRCS unknown

Expand to show TLE details & history

TLE from 2 days ago
0 ATLAS 5 CENTAUR DEB
1 46464U 14055CL  24359.76390864 -.00000036  00000-0  00000+0 0  9994
2 46464  19.5388 205.3097 4922157  58.1995 340.6927  1.82528855 33970
Epoch: 2024-12-24T18:20Z
Definitive object data (Epoch: 2024-12-24T18:20:01.706Z)
Latitude
Longitude-163.42989°
Altitude10,610.301 km
Speed5.73 km/s
True Right ascension13h 41m 22s
True Declination0° 00' 00"
Sunlit
Object was in daylight at TLE epoch
Visualization TLE readout
Latitude-17.99718°
Longitude130.14789°
Altitude23,760.864 km
Speed3.516 km/s
Apparent Right ascension09h 08m 49s
Apparent Declination-21° 46' 18"
Sunlit
Object is in daylight
Visualization observer readout
Local Sidereal Time20:28:26
Azimuth331.693° NNW
Elevation-69.926°
Doppler factor1
Orbital elements
Apogee altitude35,828.058 km
Perigee altitude7,984.159 km
Semi-major axis28,284.245 km
Eccentricity0.4922157
Inclination19.5388°
RAAN205.3097°
Arg. of periapsis58.1995°
True anomaly302.04411°
Mean anomaly340.6927°
Eccentric anomaly324.193°
Mean motion0.45627 °/min
BSTARUnknown
Orbital period789 mins
Loading maneuver chart data...

ATLAS 5 CENTAUR DEB Visibility forecast

Observer location: undefined°, undefined

Span
Click to sort rows by Start time (UTC) header in descending order
Start Az.
Max El. time (UTC)
Max El. Az.
Max El.
End time (UTC)
End Az.
747 mins2024-12-26 23:56:30.855Z265.957° W2024-12-27 00:54:30.855Z201.046° SSW36.278°2024-12-27 12:23:30.855Z111.548° ESE
|